This demonstration page uses our WeatherBlox Daily Observations layout. Learn more.

Left ArrowRight Arrow

Hourly Observations for August 29, 2019

Temp ( °F °C ) Dew Point ( °F °C ) Humidity (%) Winds ( mph kmh ) Pressure ( in mb ) Visibility ( mi km ) Precip ( " mm )
12:15 am 00:15 Clear 57 14.1 57 14.1 100 100 Calm 30.04 1017 10 16 0.00 0.00
12:35 am 00:35 Clear 56 13.5 56 13.5 100 100 Calm 30.04 1017 10 16 0.00 0.00
12:55 am 00:55 Clear 55 13 55 13 100 100 Calm 30.05 1018 10 16 0.00 0.00
1:15 am 01:15 Clear 56 13.1 56 13.1 100 100 WSW 3 6 30.05 1018 10 16 0.00 0.00
3:15 am 03:15 Clear 53 11.5 53 11.5 100 100 Calm 30.06 1018 10 16 0.00 0.00
3:35 am 03:35 Clear 54 12 54 12 100 100 Calm 30.05 1018 10 16 0.00 0.00
3:55 am 03:55 Clear 53 11.9 53 11.9 100 100 Calm 30.05 1018 10 16 0.00 0.00
4:15 am 04:15 Clear 53 11.5 53 11.5 100 100 Calm 30.06 1018 10 16 0.00 0.00
4:35 am 04:35 Clear 52 11.1 52 11.1 100 100 Calm 30.06 1018 10 16 0.00 0.00
4:55 am 04:55 Clear 52 11 52 11 100 100 Calm 30.07 1018 10 16 0.00 0.00
5:15 am 05:15 Clear 52 11 52 11 100 100 Calm 30.07 1018 10 16 0.00 0.00
5:35 am 05:35 Clear 52 11.3 52 11.3 100 100 Calm 30.07 1018 10 16 0.00 0.00
5:55 am 05:55 Clear 52 10.9 52 10.9 100 100 Calm 30.07 1018 10 16 0.00 0.00
6:15 am 06:15 Clear 52 10.9 52 10.9 100 100 Calm 30.07 1018 10 16 0.00 0.00
6:35 am 06:35 Clear 52 10.9 52 10.9 100 100 Calm 30.08 1019 10 16 0.00 0.00
6:55 am 06:55 Clear 51 10.6 51 10.6 100 100 Calm 30.08 1019 10 16 0.00 0.00
7:15 am 07:15 Sunny 52 11.2 52 11.2 100 100 Calm 30.08 1019 10 16 0.00 0.00
7:35 am 07:35 Sunny 52 11.2 52 11.2 100 100 Calm 30.08 1019 10 16 0.00 0.00
7:55 am 07:55 Sunny 54 12 54 12 100 100 Calm 30.08 1019 10 16 0.00 0.00
8:15 am 08:15 Sunny 56 13.2 56 13.2 100 100 Calm 30.08 1019 10 16 0.00 0.00
8:35 am 08:35 Sunny 59 15.1 59 15.1 100 100 SW 5 7 30.08 1019 10 16 0.00 0.00
8:55 am 08:55 Sunny 61 16.2 61 16.2 100 100 SW 3 6 30.07 1018 10 16 0.00 0.00
9:15 am 09:15 Sunny 63 17.2 63 17.2 100 100 SW 3 6 30.08 1018 10 16 0.00 0.00
9:35 am 09:35 Sunny 65 18.1 64 17.6 97 97 SW 3 6 30.06 1018 10 16 0.00 0.00
9:55 am 09:55 Sunny 67 19.3 63 17.4 89 89 SSW 5 7 30.06 1018 10 16 0.00 0.00
10:15 am 10:15 Sunny 68 20.2 65 18.1 88 88 SSW 5 7 30.06 1018 10 16 0.00 0.00
10:35 am 10:35 Sunny 70 21.1 63 17.1 78 78 SSW 6 9 30.05 1018 10 16 0.00 0.00
10:55 am 10:55 Sunny 71 21.7 62 16.9 74 74 SW 8 13 30.05 1018 10 16 0.00 0.00
11:15 am 11:15 Sunny 73 22.5 62 16.8 70 70 SW 8 13 30.05 1018 10 16 0.00 0.00
11:35 am 11:35 Sunny 73 22.9 64 17.9 74 74 SW 10 17 30.05 1017 10 16 0.00 0.00
11:55 am 11:55 Sunny 74 23.2 64 17.7 71 71 SW 13 20 30.05 1017 10 16 0.00 0.00
12:15 pm 12:15 Sunny 75 23.7 65 18.5 73 73 SW 13 20 30.04 1017 10 16 0.00 0.00
12:35 pm 12:35 Sunny 75 24 65 18.3 71 71 WSW 14 22 30.04 1017 10 16 0.00 0.00
12:55 pm 12:55 Sunny 76 24.4 65 18.2 68 68 WSW 10 17 30.02 1017 10 16 0.00 0.00
1:15 pm 13:15 Sunny 76 24.5 66 19.1 72 72 WSW 14 22 30.02 1017 10 16 0.00 0.00
1:35 pm 13:35 Sunny 77 24.8 66 19 70 70 SW 10 17 30.00 1016 10 16 0.00 0.00
1:55 pm 13:55 Sunny 77 25 65 18.3 66 66 SW 17 28 30.00 1016 10 16 0.00 0.00
2:15 pm 14:15 Sunny 78 25.4 65 18.5 66 66 SW 13 20 30.00 1016 10 16 0.00 0.00
2:35 pm 14:35 Sunny 78 25.6 64 18 63 63 SW 18 30 30.00 1016 10 16 0.00 0.00
2:55 pm 14:55 Sunny 78 25.5 65 18.1 64 64 WSW 15 24 30.00 1016 10 16 0.00 0.00
3:15 pm 15:15 Sunny 78 25.5 64 17.6 62 62 SW 14 22 29.99 1016 10 16 0.00 0.00
3:35 pm 15:35 Sunny 78 25.5 64 18 63 63 WSW 16 26 29.99 1016 10 16 0.00 0.00
3:55 pm 15:55 Sunny 77 25.1 64 17.7 64 64 SW 16 26 29.98 1015 10 16 0.00 0.00
4:15 pm 16:15 Sunny 76 24.7 63 17.3 64 64 SW 16 26 29.98 1015 10 16 0.00 0.00
4:35 pm 16:35 Sunny 78 25.4 64 17.6 62 62 SW 17 28 29.97 1015 10 16 0.00 0.00
4:55 pm 16:55 Sunny 77 25 64 17.6 64 64 SW 12 19 29.96 1015 10 16 0.00 0.00
5:15 pm 17:15 Sunny 75 24 64 17.8 68 68 SW 13 20 29.95 1014 10 16 0.00 0.00
5:35 pm 17:35 Sunny 76 24.5 64 17.6 66 66 SW 13 20 29.95 1014 10 16 0.00 0.00
5:55 pm 17:55 Sunny 76 24.6 63 17.4 64 64 SSW 14 22 29.93 1014 10 16 0.00 0.00
6:15 pm 18:15 Sunny 76 24.5 63 17.3 64 64 SW 16 26 29.93 1014 10 16 0.00 0.00
6:35 pm 18:35 Sunny 76 24.2 63 17.3 65 65 SSW 14 22 29.94 1014 10 16 0.00 0.00
6:55 pm 18:55 Sunny 75 23.9 65 18.3 71 71 SSW 12 19 29.93 1014 10 16 0.00 0.00
7:15 pm 19:15 Sunny 74 23.6 65 18.3 72 72 SSW 10 17 29.93 1014 10 16 0.00 0.00
7:35 pm 19:35 Partly Cloudy 74 23.4 65 18.3 73 73 SSW 12 19 29.95 1014 10 16 0.00 0.00
7:55 pm 19:55 Partly Cloudy 74 23.1 65 18.1 74 74 SSW 13 20 29.95 1014 10 16 0.00 0.00
8:15 pm 20:15 Partly Cloudy 73 22.6 64 17.8 74 74 SSW 12 19 29.95 1014 10 16 0.00 0.00
8:35 pm 20:35 Partly Cloudy 72 22.1 64 18 78 78 SSW 10 17 29.95 1014 10 16 0.00 0.00
8:55 pm 20:55 Partly Cloudy 71 21.7 65 18.1 80 80 SSW 10 17 29.96 1015 10 16 0.00 0.00
9:15 pm 21:15 Partly Cloudy 71 21.7 65 18.2 81 81 SSW 10 17 29.96 1015 10 16 0.00 0.00
9:35 pm 21:35 Partly Cloudy 71 21.7 65 18.2 81 81 SSW 10 17 29.96 1015 10 16 0.00 0.00
9:55 pm 21:55 Mostly Cloudy 71 21.6 65 18.1 81 81 SSW 12 19 29.96 1015 10 16 0.00 0.00
10:15 pm 22:15 Mostly Cloudy 71 21.7 65 18.2 81 81 SW 12 19 29.96 1015 10 16 0.00 0.00
10:35 pm 22:35 Mostly Cloudy 71 21.7 64 18 80 80 SSW 14 22 29.96 1015 10 16 0.00 0.00
10:55 pm 22:55 Partly Cloudy 71 21.9 64 17.7 77 77 SW 14 22 29.96 1015 10 16 0.00 0.00
11:15 pm 23:15 Partly Cloudy 71 21.7 64 17.5 77 77 SW 15 24 29.96 1015 10 16 0.00 0.00
11:35 pm 23:35 Partly Cloudy 71 21.8 63 17.4 76 76 SW 13 20 29.96 1015 10 16 0.00 0.00
11:55 pm 23:55 Partly Cloudy 70 21.2 64 17.5 80 80 SW 10 17 29.96 1015 10 16 0.00 0.00

Powered by AerisWeather